Weather History for Hailey, ID

Change the Weather History Date:

Wednesday, October 9, 2013

  Actual Average Record
Temperature  
Mean Temperature 46 °F -  
Max Temperature 60 °F 61 °F 71 °F (2000)
Min Temperature 33 °F 34 °F 28 °F (2008)
Degree Days  
Heating Degree Days 18    
Moisture  
Dew Point 29 °F    
Average Humidity 65    
Maximum Humidity 87    
Minimum Humidity 27    
Precipitation  
Precipitation 0.00 in - - ()
Sea Level Pressure  
Sea Level Pressure 29.85 in    
Wind  
Wind Speed 5 mph (WNW)    
Max Wind Speed 13 mph    
Max Gust Speed -    
Visibility 10 miles    
Events      
Averages and records for this station are not official NWS values.
T = Trace of Precipitation, MM = Missing Value Source: NWS Daily Summary

Daily Weather History Graph

Daily Weather History Graph

Search for Another Location

Airport:

Trip Planner

Search our weather history database for the weather conditions in past years. The results will help you decide how hot, cold, wet, or windy it might be!

Date:

Astronomy

Oct. 09, 2013 Rise Set
Actual Time 7:44 AM MDT 7:03 PM MDT
Civil Twilight 7:15 AM MDT 7:32 PM MDT
Nautical Twilight 6:42 AM MDT 8:05 PM MDT
Astronomical Twilight 6:09 AM MDT 8:38 PM MDT
Moon 12:51 PM MDT (10/9) 10:35 PM MDT (10/9)
Length of Visible Light 12h 16m
Length of Day
11h 19m
Waxing Crescent, 26% of the Moon is Illuminated
Oct 9
Waxing Crescent
Oct 11
First Quarter
Oct 18
Full
Oct 26
Last Quarter
Nov 3
New

Hourly Weather History & Observations

Time (MDT) Temp. Windchill Dew Point Humidity Pressure Visibility Wind Dir Wind Speed Gust Speed Precip Events Conditions
12:15 AM 35.6 °F - 30.2 °F 81% 29.87 in 10.0 mi Calm Calm - N/A   Clear
12:35 AM 35.6 °F - 30.2 °F 81% 29.87 in 10.0 mi Calm Calm - N/A   Clear
12:55 AM 35.6 °F - 30.2 °F 81% 29.86 in 10.0 mi Calm Calm - N/A   Clear
1:15 AM 35.6 °F - 30.2 °F 81% 29.87 in 10.0 mi Calm Calm - N/A   Clear
1:35 AM 33.8 °F - 30.2 °F 87% 29.87 in 10.0 mi Calm Calm - N/A   Clear
1:55 AM 35.6 °F 31.7 °F 30.2 °F 81% 29.86 in 10.0 mi NW 4.6 mph - N/A   Clear
2:15 AM 33.8 °F 29.6 °F 28.4 °F 81% 29.86 in 10.0 mi NNW 4.6 mph - N/A   Clear
2:35 AM 35.6 °F 31.7 °F 30.2 °F 81% 29.87 in 10.0 mi WNW 4.6 mph - N/A   Clear
2:55 AM 33.8 °F - 28.4 °F 81% 29.88 in 10.0 mi Calm Calm - N/A   Clear
3:15 AM 35.6 °F 30.7 °F 30.2 °F 81% 29.87 in 10.0 mi WNW 5.8 mph - N/A   Clear
3:35 AM 35.6 °F 30.7 °F 30.2 °F 81% 29.87 in 10.0 mi NW 5.8 mph - N/A   Clear
3:55 AM 35.6 °F 30.7 °F 30.2 °F 81% 29.86 in 10.0 mi NW 5.8 mph - N/A   Clear
4:15 AM 35.6 °F 30.7 °F 30.2 °F 81% 29.86 in 10.0 mi NW 5.8 mph - N/A   Clear
4:35 AM 33.8 °F 27.7 °F 28.4 °F 81% 29.86 in 10.0 mi NW 6.9 mph - N/A   Clear
4:55 AM 33.8 °F 27.7 °F 28.4 °F 81% 29.86 in 10.0 mi NW 6.9 mph - N/A   Clear
5:15 AM 33.8 °F 28.6 °F 28.4 °F 81% 29.86 in 10.0 mi NW 5.8 mph - N/A   Clear
5:35 AM 33.8 °F 28.6 °F 28.4 °F 81% 29.86 in 10.0 mi NW 5.8 mph - N/A   Clear
5:55 AM 33.8 °F 27.7 °F 28.4 °F 81% 29.86 in 10.0 mi NW 6.9 mph - N/A   Clear
6:15 AM 33.8 °F 26.4 °F 28.4 °F 81% 29.86 in 10.0 mi NW 9.2 mph - N/A   Clear
6:35 AM 33.8 °F 27.7 °F 28.4 °F 81% 29.86 in 10.0 mi NW 6.9 mph - N/A   Scattered Clouds
6:47 AM 35.6 °F 30.7 °F 26.6 °F 70% 29.86 in 10.0 mi WNW 5.8 mph - N/A   Scattered Clouds
6:55 AM 33.8 °F 27.0 °F 28.4 °F 81% 29.86 in 10.0 mi NW 8.1 mph - N/A   Mostly Cloudy
7:47 AM 35.6 °F 29.2 °F 26.6 °F 70% 29.86 in 10.0 mi WNW 8.1 mph - N/A   Scattered Clouds
8:47 AM 35.6 °F 28.6 °F 26.6 °F 70% 29.87 in 10.0 mi WNW 9.2 mph - N/A   Mostly Cloudy
9:48 AM 39.2 °F 32.0 °F 26.6 °F 61% 29.86 in 10.0 mi WNW 11.5 mph - N/A   Overcast
10:47 AM 44.6 °F 38.8 °F 26.6 °F 49% 29.86 in 10.0 mi WNW 11.5 mph - N/A   Overcast
11:47 AM 51.8 °F - 26.6 °F 38% 29.85 in 10.0 mi NW 11.5 mph - N/A   Scattered Clouds
12:47 PM 53.6 °F - 32.0 °F 44% 29.85 in 10.0 mi SE 11.5 mph - N/A   Scattered Clouds
1:47 PM 55.4 °F - 30.2 °F 38% 29.82 in 10.0 mi SE 10.4 mph - N/A   Scattered Clouds
2:47 PM 57.2 °F - 30.2 °F 36% 29.81 in 10.0 mi South 12.7 mph - N/A   Scattered Clouds
3:47 PM 60.8 °F - 28.4 °F 29% 29.80 in 10.0 mi South 11.5 mph - N/A   Scattered Clouds
4:50 PM 60.8 °F - 28.4 °F 29% 29.80 in 10.0 mi SSE 12.7 mph - N/A   Scattered Clouds
5:50 PM 60.8 °F - 26.6 °F 27% 29.80 in 10.0 mi ESE 8.1 mph - N/A   Scattered Clouds
6:47 PM 53.6 °F - 30.2 °F 41% 29.80 in 10.0 mi South 5.8 mph - N/A   Scattered Clouds
7:47 PM 53.6 °F - 28.4 °F 38% 29.81 in 10.0 mi ESE 8.1 mph - N/A   Scattered Clouds
8:49 PM 50.0 °F - 30.2 °F 47% 29.82 in 10.0 mi West 5.8 mph - N/A   Scattered Clouds
9:47 PM 48.2 °F - 28.4 °F 46% 29.83 in 10.0 mi WNW 5.8 mph - N/A   Scattered Clouds
10:47 PM 46.4 °F 44.3 °F 28.4 °F 50% 29.83 in 10.0 mi WNW 4.6 mph - N/A   Scattered Clouds
11:15 PM 44.6 °F 43.1 °F 30.2 °F 57% 29.84 in 10.0 mi NNW 3.5 mph - N/A   Mostly Cloudy
11:35 PM 44.6 °F 42.2 °F 30.2 °F 57% 29.84 in 10.0 mi WNW 4.6 mph - N/A   Mostly Cloudy
11:55 PM 44.6 °F 42.2 °F 30.2 °F 57% 29.84 in 10.0 mi NW 4.6 mph - N/A   Mostly Cloudy